DW5256 Weather Reports


time (UTC)temp
F
wind
direction
speed
knots
gust
knots
rain 1hr
in
rain 24hr
in
rain mn
in
humidity
%
barometer
mb
20260905175026 83 290 0.0 0.0 0.00 0.00 0.00 35 1012.5
20260905173519 82 296 0.0 0.0 0.00 0.00 0.00 36 1012.4
20260905172027 80 299 0.0 0.0 0.00 0.00 0.00 40 1012.3
20260905170522 79 302 0.0 0.0 0.00 0.00 0.00 45 1012.1
20260905165017 79 339 0.0 0.0 0.00 0.00 0.00 44 1012.3
20260905163529 79 355 0.0 0.0 0.00 0.00 0.00 41 1012.2
20260905162016 77 355 0.0 0.0 0.00 0.00 0.00 42 1012.0
20260905160526 75 355 0.0 0.0 0.00 0.00 0.00 45 1012.1
20260905155034 73 355 0.0 0.0 0.00 0.00 0.00 50 1012.1
20260905153523 72 355 0.0 0.0 0.00 0.00 0.00 50 1012.2
20260905152033 71 355 0.0 0.0 0.00 0.00 0.00 51 1012.0
20260905150522 69 355 0.0 0.0 0.00 0.00 0.00 54 1011.9
20260905145032 68 355 0.0 0.0 0.00 0.00 0.00 58 1011.8
20260905143526 67 355 0.0 0.0 0.00 0.00 0.00 61 1011.7
20260905142048 66 323 0.0 0.0 0.00 0.00 0.00 68 1011.7
20260905140520 65 318 0.0 0.0 0.00 0.00 0.00 70 1011.5
20260905135030 64 317 0.0 0.0 0.00 0.00 0.00 73 1011.4
20260905133540 63 313 0.0 0.0 0.00 0.00 0.00 77 1011.2
20260905132052 63 311 0.0 0.0 0.00 0.00 0.00 77 1011.1
20260905130550 63 312 0.0 0.0 0.00 0.00 0.00 77 1011.0
20260905125027 64 311 0.0 0.0 0.00 0.00 0.00 76 1010.8
20260905123527 63 311 0.0 0.0 0.00 0.00 0.00 77 1010.8
20260905122023 63 311 0.0 0.0 0.00 0.00 0.00 77 1010.7
20260905120523 63 311 0.0 0.0 0.00 0.00 0.00 78 1010.8
20260905115020 63 311 0.0 0.0 0.00 0.00 0.00 78 1010.9
20260905113520 63 311 0.0 0.0 0.00 0.00 0.00 79 1011.0
20260905112019 63 311 0.0 0.0 0.00 0.00 0.00 80 1011.0
20260905110517 63 311 0.0 0.0 0.00 0.00 0.00 81 1011.1
20260905105032 63 311 0.0 0.0 0.00 0.00 0.00 81 1011.2
20260905103532 63 311 0.0 0.0 0.00 0.00 0.00 82 1011.2
20260905102031 63 311 0.0 0.0 0.00 0.00 0.00 82 1011.2
20260905100529 63 311 0.0 0.0 0.00 0.00 0.00 82 1011.4
20260905095022 63 311 0.0 0.0 0.00 0.00 0.00 82 1011.2
20260905093519 63 311 0.0 0.0 0.00 0.00 0.00 82 1011.3
20260905092014 63 311 0.0 0.0 0.00 0.00 0.00 81 1011.2
20260905090554 64 311 0.0 0.0 0.00 0.00 0.00 81 1011.3
20260905085025 64 311 0.0 0.0 0.00 0.00 0.00 82 1011.4
20260905083523 65 311 0.0 0.0 0.00 0.00 0.00 82 1011.6
20260905082019 64 298 0.0 0.0 0.00 0.00 0.00 83 1011.8
20260905080519 64 277 0.0 0.0 0.00 0.00 0.00 83 1012.0
20260905075016 64 271 0.0 0.0 0.00 0.00 0.00 83 1012.0
20260905073536 64 271 0.0 0.0 0.00 0.00 0.00 83 1012.1
20260905072030 65 271 0.0 0.0 0.00 0.00 0.00 82 1012.3
20260905070527 65 271 0.0 0.0 0.00 0.00 0.00 82 1012.3
20260905065043 64 271 0.0 0.0 0.00 0.00 0.00 82 1012.3
20260905063524 65 271 0.0 0.0 0.00 0.00 0.00 81 1012.1
20260905062022 65 271 0.0 0.0 0.00 0.00 0.00 81 1012.0
20260905060544 65 271 0.0 0.0 0.00 0.00 0.00 81 1012.1
20260905055020 65 271 0.0 0.0 0.00 0.00 0.00 80 1011.9
20260905053526 66 271 0.0 0.0 0.00 0.00 0.00 79 1012.0
20260905052021 66 271 0.0 0.0 0.00 0.00 0.00 79 1012.1
20260905050536 67 271 0.0 0.0 0.00 0.00 0.00 78 1012.0
20260905045053 67 271 0.0 0.0 0.00 0.00 0.00 78 1012.0
20260905043532 67 271 0.0 0.0 0.00 0.00 0.00 77 1011.6
20260905042030 67 271 0.0 0.0 0.00 0.00 0.00 77 1011.5
20260905040537 67 271 0.0 0.0 0.00 0.00 0.00 77 1011.7
20260905035014 68 271 0.0 0.0 0.00 0.00 0.00 76 1011.4
20260905033515 68 271 0.0 0.0 0.00 0.00 0.00 75 1011.2
20260905032032 69 271 0.0 0.0 0.00 0.00 0.00 74 1011.1
20260905030530 69 271 0.0 0.0 0.00 0.00 0.00 74 1010.9
20260905025028 70 276 0.9 3.5 0.00 0.00 0.00 73 1010.7
20260905023527 71 271 0.0 5.2 0.00 0.00 0.00 71 1010.6
20260905022025 72 275 0.0 3.5 0.00 0.00 0.00 70 1010.6
20260905020527 73 269 2.6 7.0 0.00 0.00 0.00 67 1010.6
20260905015025 75 271 0.9 6.1 0.00 0.00 0.00 64 1010.5
20260905013524 76 305 0.0 2.6 0.00 0.00 0.00 57 1010.4
20260905012020 77 277 1.7 7.8 0.00 0.00 0.00 53 1010.3
20260905010520 78 281 0.9 6.1 0.00 0.00 0.00 48 1010.3
20260905005016 78 295 1.7 7.0 0.00 0.00 0.00 50 1010.3
20260905003542 78 274 0.0 6.1 0.00 0.00 0.00 51 1010.3
20260905002015 79 259 3.5 7.0 0.00 0.00 0.00 51 1010.5
20260905000535 79 277 0.9 7.8 0.00 0.00 0.00 52 1010.5
20260904235029 79 275 1.7 6.1 0.00 0.00 0.00 53 1010.5
20260904233547 78 275 2.6 8.7 0.00 0.00 0.00 54 1010.6
20260904232018 79 258 2.6 10.4 0.00 0.00 0.00 53 1010.5
20260904230517 79 265 1.7 7.8 0.00 0.00 0.00 52 1010.6
20260904225032 80 275 2.6 8.7 0.00 0.00 0.00 50 1010.7
20260904223531 80 299 1.7 8.7 0.00 0.00 0.00 50 1010.8
20260904222027 81 254 3.5 10.4 0.00 0.00 0.00 45 1010.8
20260904220527 83 200 0.9 6.1 0.00 0.00 0.00 43 1011.1
20260904215026 82 250 3.5 11.3 0.00 0.00 0.00 45 1011.0
20260904213523 82 242 1.7 8.7 0.00 0.00 0.00 45 1011.2
20260904212019 81 248 1.7 10.4 0.00 0.00 0.00 48 1011.2
20260904210544 82 225 1.7 10.4 0.00 0.00 0.00 48 1011.2
20260904205016 81 225 3.5 11.3 0.00 0.00 0.00 51 1011.2
20260904203517 82 179 0.9 11.3 0.00 0.00 0.00 50 1011.2
20260904202026 82 229 1.7 8.7 0.00 0.00 0.00 48 1011.2
20260904200537 80 249 1.7 10.4 0.00 0.00 0.00 52 1011.3
20260904195033 81 253 0.9 8.7 0.00 0.00 0.00 53 1011.5
20260904193533 79 253 2.6 8.7 0.00 0.00 0.00 55 1011.7
20260904192029 79 252 0.0 7.0 0.00 0.00 0.00 54 1011.8
20260904190522 79 227 0.0 9.6 0.00 0.00 0.00 54 1011.8
20260904185041 80 223 0.0 7.0 0.00 0.00 0.00 55 1012.0
20260904183534 80 249 0.9 6.1 0.00 0.00 0.00 49 1012.1
20260904182021 78 279 0.0 5.2 0.00 0.00 0.00 52 1012.1
20260904180529 77 267 1.7 5.2 0.00 0.00 0.00 57 1012.1